| time (UTC) | temp C | wind direction | speed KPH | gust KPH | rain 1hr cm | rain 24hr cm | rain mn cm | humidity % | barometer mb |
| 20260901041608 | 26 | 0 | 0.0 | 0.0 | 0.00 | 0.00 | 0.00 | 60 | 1017.4 |
| 20260901040047 | 26 | 0 | 0.0 | 1.6 | 0.00 | 0.00 | 0.00 | 59 | 1017.4 |
| 20260901034546 | 26 | 0 | 0.0 | 1.6 | 0.00 | 0.00 | 0.00 | 59 | 1017.4 |
| 20260901033059 | 26 | 0 | 0.0 | 1.6 | 0.00 | 0.00 | 0.00 | 57 | 1017.3 |
| 20260901031557 | 26 | 0 | 0.0 | 1.6 | 0.00 | 0.00 | 0.00 | 58 | 1017.4 |
| 20260901030047 | 26 | 0 | 0.0 | 0.0 | 0.00 | 0.00 | 0.00 | 58 | 1017.2 |
| 20260901024556 | 26 | 0 | 0.0 | 1.6 | 0.00 | 0.00 | 0.00 | 59 | 1016.9 |
| 20260901023050 | 26 | 0 | 0.0 | 0.0 | 0.00 | 0.00 | 0.00 | 58 | 1016.6 |
| 20260901021549 | 26 | 0 | 0.0 | 0.0 | 0.00 | 0.00 | 0.00 | 56 | 1016.3 |
| 20260901020100 | 27 | 0 | 0.0 | 0.0 | 0.00 | 0.00 | 0.00 | 54 | 1015.9 |
| 20260901014600 | 27 | 0 | 0.0 | 0.0 | 0.00 | 0.00 | 0.00 | 52 | 1015.9 |
| 20260901013054 | 28 | 0 | 0.0 | 0.0 | 0.00 | 0.00 | 0.00 | 50 | 1015.7 |
| 20260901011545 | 30 | 0 | 0.0 | 0.0 | 0.00 | 0.00 | 0.00 | 48 | 1015.5 |
| 20260901010054 | 31 | 0 | 0.0 | 0.0 | 0.00 | 0.00 | 0.00 | 45 | 1015.5 |
| 20260901004600 | 32 | 0 | 0.0 | 0.0 | 0.00 | 0.00 | 0.00 | 43 | 1015.5 |
| 20260901003049 | 33 | 0 | 0.0 | 1.6 | 0.00 | 0.00 | 0.00 | 41 | 1015.4 |
| 20260901001554 | 34 | 0 | 0.0 | 1.6 | 0.00 | 0.00 | 0.00 | 38 | 1015.3 |
| 20260901000106 | 35 | 0 | 0.0 | 3.2 | 0.00 | 0.00 | 0.00 | 37 | 1015.5 |
| 20260831234612 | 35 | 106 | 0.0 | 3.2 | 0.00 | 0.00 | 0.00 | 36 | 1015.5 |
| 20260831233049 | 36 | 0 | 0.0 | 4.8 | 0.00 | 0.00 | 0.00 | 35 | 1015.6 |
| 20260831231555 | 36 | 0 | 0.0 | 6.4 | 0.00 | 0.00 | 0.00 | 34 | 1015.6 |
| 20260831230051 | 37 | 0 | 0.0 | 6.4 | 0.00 | 0.00 | 0.00 | 32 | 1015.6 |
| 20260831224545 | 38 | 0 | 0.0 | 4.8 | 0.00 | 0.00 | 0.00 | 31 | 1015.6 |
| 20260831223054 | 38 | 224 | 0.0 | 4.8 | 0.00 | 0.00 | 0.00 | 31 | 1015.6 |
| 20260831221551 | 39 | 0 | 0.0 | 4.8 | 0.00 | 0.00 | 0.00 | 30 | 1015.7 |
| 20260831220049 | 38 | 126 | 1.6 | 12.9 | 0.00 | 0.00 | 0.00 | 30 | 1015.7 |
| 20260831214604 | 38 | 0 | 0.0 | 4.8 | 0.00 | 0.00 | 0.00 | 30 | 1015.8 |
| 20260831213053 | 38 | 72 | 1.6 | 8.0 | 0.00 | 0.00 | 0.00 | 30 | 1015.8 |
| 20260831211548 | 39 | 94 | 1.6 | 8.0 | 0.00 | 0.00 | 0.00 | 30 | 1015.9 |
| 20260831210046 | 38 | 0 | 0.0 | 11.3 | 0.00 | 0.00 | 0.00 | 31 | 1016.1 |
| 20260831204605 | 38 | 192 | 0.0 | 3.2 | 0.00 | 0.00 | 0.00 | 31 | 1016.3 |
| 20260831203049 | 39 | 56 | 1.6 | 12.9 | 0.00 | 0.00 | 0.00 | 30 | 1016.5 |
| 20260831201557 | 40 | 115 | 1.6 | 8.0 | 0.00 | 0.00 | 0.00 | 30 | 1016.6 |
| 20260831200056 | 39 | 271 | 0.0 | 9.7 | 0.00 | 0.00 | 0.00 | 32 | 1016.8 |
| 20260831194555 | 39 | 0 | 1.6 | 9.7 | 0.00 | 0.00 | 0.00 | 31 | 1016.8 |
| 20260831193047 | 38 | 217 | 0.0 | 8.0 | 0.00 | 0.00 | 0.00 | 32 | 1017.0 |
| 20260831191544 | 40 | 200 | 1.6 | 6.4 | 0.00 | 0.00 | 0.00 | 31 | 1017.2 |
| 20260831190054 | 38 | 0 | 1.6 | 9.7 | 0.00 | 0.00 | 0.00 | 32 | 1017.3 |
| 20260831184549 | 38 | 200 | 1.6 | 8.0 | 0.00 | 0.00 | 0.00 | 33 | 1017.5 |
| 20260831183055 | 39 | 118 | 0.0 | 6.4 | 0.00 | 0.00 | 0.00 | 33 | 1017.6 |
| 20260831181549 | 38 | 161 | 1.6 | 8.0 | 0.00 | 0.00 | 0.00 | 33 | 1017.7 |
| 20260831180055 | 37 | 70 | 0.0 | 4.8 | 0.00 | 0.00 | 0.00 | 36 | 1017.9 |
| 20260831174548 | 38 | 134 | 1.6 | 11.3 | 0.00 | 0.00 | 0.00 | 35 | 1018.2 |
| 20260831173048 | 38 | 158 | 0.0 | 8.0 | 0.00 | 0.00 | 0.00 | 36 | 1018.2 |
| 20260831171544 | 37 | 257 | 0.0 | 8.0 | 0.00 | 0.00 | 0.00 | 36 | 1018.4 |
| 20260831170054 | 37 | 262 | 0.0 | 9.7 | 0.00 | 0.00 | 0.00 | 39 | 1018.5 |
| 20260831164547 | 37 | 0 | 0.0 | 8.0 | 0.00 | 0.00 | 0.00 | 40 | 1018.8 |
| 20260831163049 | 36 | 0 | 0.0 | 8.0 | 0.00 | 0.00 | 0.00 | 42 | 1018.8 |
| 20260831161603 | 36 | 177 | 1.6 | 8.0 | 0.00 | 0.00 | 0.00 | 41 | 1018.8 |
| 20260831160055 | 36 | 199 | 0.0 | 8.0 | 0.00 | 0.00 | 0.00 | 43 | 1018.8 |
| 20260831154618 | 35 | 124 | 0.0 | 9.7 | 0.00 | 0.00 | 0.00 | 45 | 1018.7 |
| 20260831153055 | 35 | 0 | 0.0 | 3.2 | 0.00 | 0.00 | 0.00 | 46 | 1018.6 |
| 20260831151555 | 33 | 245 | 1.6 | 9.7 | 0.00 | 0.00 | 0.00 | 49 | 1018.7 |
| 20260831150051 | 32 | 115 | 1.6 | 8.0 | 0.00 | 0.00 | 0.00 | 52 | 1018.6 |
| 20260831144552 | 31 | 200 | 1.6 | 8.0 | 0.00 | 0.00 | 0.00 | 55 | 1018.7 |
| 20260831143103 | 30 | 180 | 0.0 | 9.7 | 0.00 | 0.00 | 0.00 | 58 | 1018.8 |
| 20260831141604 | 29 | 0 | 0.0 | 8.0 | 0.00 | 0.00 | 0.00 | 59 | 1018.9 |
| 20260831140055 | 28 | 234 | 0.0 | 6.4 | 0.00 | 0.00 | 0.00 | 62 | 1019.0 |
| 20260831134550 | 27 | 203 | 1.6 | 4.8 | 0.00 | 0.00 | 0.00 | 63 | 1018.9 |
| 20260831133046 | 26 | 184 | 0.0 | 1.6 | 0.00 | 0.00 | 0.00 | 65 | 1018.7 |
| 20260831131545 | 25 | 0 | 0.0 | 1.6 | 0.00 | 0.00 | 0.00 | 67 | 1018.5 |
| 20260831130057 | 25 | 0 | 0.0 | 1.6 | 0.00 | 0.00 | 0.00 | 68 | 1018.4 |
| 20260831124545 | 24 | 0 | 0.0 | 0.0 | 0.00 | 0.00 | 0.00 | 69 | 1018.4 |
| 20260831123055 | 23 | 0 | 0.0 | 1.6 | 0.00 | 0.00 | 0.00 | 70 | 1018.0 |
| 20260831121554 | 23 | 0 | 0.0 | 0.0 | 0.00 | 0.00 | 0.00 | 71 | 1017.8 |
| 20260831120046 | 23 | 0 | 0.0 | 1.6 | 0.00 | 0.00 | 0.00 | 71 | 1017.7 |
| 20260831114557 | 23 | 0 | 0.0 | 1.6 | 0.00 | 0.00 | 0.00 | 70 | 1017.3 |
| 20260831113053 | 23 | 0 | 0.0 | 1.6 | 0.00 | 0.00 | 0.00 | 70 | 1017.2 |
| 20260831111550 | 23 | 215 | 0.0 | 1.6 | 0.00 | 0.00 | 0.00 | 69 | 1017.2 |
| 20260831110057 | 23 | 210 | 0.0 | 1.6 | 0.00 | 0.00 | 0.00 | 68 | 1017.1 |
| 20260831104550 | 23 | 0 | 0.0 | 1.6 | 0.00 | 0.00 | 0.00 | 67 | 1017.0 |
| 20260831103046 | 24 | 0 | 0.0 | 3.2 | 0.00 | 0.00 | 0.00 | 66 | 1016.9 |
| 20260831101556 | 24 | 0 | 0.0 | 3.2 | 0.00 | 0.00 | 0.00 | 65 | 1016.9 |
| 20260831100050 | 25 | 0 | 0.0 | 6.4 | 0.00 | 0.00 | 0.00 | 64 | 1016.8 |
| 20260831094545 | 24 | 225 | 0.0 | 6.4 | 0.00 | 0.00 | 0.00 | 64 | 1016.8 |
| 20260831093046 | 24 | 0 | 0.0 | 4.8 | 0.00 | 0.00 | 0.00 | 63 | 1016.9 |
| 20260831091548 | 25 | 186 | 0.0 | 8.0 | 0.00 | 0.00 | 0.00 | 62 | 1016.7 |
| 20260831090045 | 24 | 135 | 0.0 | 3.2 | 0.00 | 0.00 | 0.00 | 62 | 1016.5 |
| 20260831084556 | 24 | 0 | 0.0 | 3.2 | 0.00 | 0.00 | 0.00 | 62 | 1016.6 |
| 20260831083056 | 24 | 0 | 0.0 | 1.6 | 0.00 | 0.00 | 0.00 | 62 | 1016.6 |
| 20260831081545 | 24 | 207 | 0.0 | 0.0 | 0.00 | 0.00 | 0.00 | 62 | 1016.4 |
| 20260831080057 | 24 | 0 | 0.0 | 1.6 | 0.00 | 0.00 | 0.00 | 61 | 1016.2 |
| 20260831074547 | 25 | 0 | 0.0 | 1.6 | 0.00 | 0.00 | 0.00 | 60 | 1016.3 |
| 20260831073052 | 25 | 0 | 0.0 | 1.6 | 0.00 | 0.00 | 0.00 | 60 | 1016.3 |
| 20260831071547 | 25 | 188 | 0.0 | 3.2 | 0.00 | 0.00 | 0.00 | 59 | 1016.1 |
| 20260831070047 | 25 | 0 | 0.0 | 4.8 | 0.00 | 0.00 | 0.00 | 59 | 1016.1 |
| 20260831064605 | 26 | 143 | 0.0 | 6.4 | 0.00 | 0.00 | 0.00 | 59 | 1016.0 |
| 20260831063048 | 26 | 0 | 0.0 | 4.8 | 0.00 | 0.00 | 0.00 | 59 | 1016.1 |
| 20260831061546 | 26 | 0 | 0.0 | 3.2 | 0.00 | 0.00 | 0.00 | 59 | 1016.2 |
| 20260831060059 | 26 | 141 | 0.0 | 4.8 | 0.00 | 0.00 | 0.00 | 60 | 1016.2 |
| 20260831054601 | 26 | 169 | 0.0 | 4.8 | 0.00 | 0.00 | 0.00 | 60 | 1016.4 |
| 20260831053046 | 26 | 0 | 0.0 | 3.2 | 0.00 | 0.00 | 0.00 | 60 | 1016.5 |
| 20260831051552 | 26 | 0 | 0.0 | 4.8 | 0.00 | 0.00 | 0.00 | 59 | 1016.5 |
| 20260831050051 | 27 | 0 | 0.0 | 4.8 | 0.00 | 0.00 | 0.00 | 59 | 1016.3 |
| 20260831044604 | 27 | 0 | 0.0 | 4.8 | 0.00 | 0.00 | 0.00 | 58 | 1016.3 |
| 20260831043044 | 27 | 127 | 0.0 | 4.8 | 0.00 | 0.00 | 0.00 | 58 | 1016.2 |